GW6421 Weather Reports


Display with metric or nautical units.
time (UTC)temp
F
wind
direction
speed
MPH
gust
MPH
rain 1hr
in
rain 24hr
in
rain mn
in
humidity
%
barometer
mb
20260505183022 61 130 3.0 11.0 0.00 0.51 0.50 85 1015.5
20260505182510 62 188 1.0 5.0 0.00 0.51 0.50 85 1015.4
20260505182012 62 91 2.0 6.0 0.00 0.51 0.50 86 1015.3
20260505181527 62 85 2.0 8.0 0.00 0.51 0.50 86 1015.3
20260505181010 62 153 2.0 8.0 0.00 0.51 0.50 86 1015.3
20260505180509 62 120 3.0 6.0 0.00 0.51 0.50 86 1015.3
20260505180008 62 129 2.0 9.0 0.00 0.51 0.50 86 1015.4
20260505175506 62 82 3.0 9.0 0.00 0.51 0.50 86 1015.2
20260505175005 62 162 3.0 8.0 0.00 0.51 0.50 86 1015.1
20260505174512 62 156 3.0 8.0 0.00 0.51 0.50 86 1015.2
20260505174007 62 114 2.0 6.0 0.00 0.51 0.50 86 1015.2
20260505173505 62 96 2.0 7.0 0.00 0.51 0.50 86 1015.3
20260505173018 62 110 3.0 7.0 0.00 0.51 0.50 85 1015.2
20260505172509 62 160 3.0 7.0 0.00 0.51 0.50 86 1015.1
20260505172010 62 87 2.0 7.0 0.00 0.51 0.50 86 1015.2
20260505171521 62 103 1.0 7.0 0.00 0.51 0.50 86 1015.2
20260505171009 62 101 2.0 7.0 0.00 0.51 0.50 86 1015.1
20260505170508 62 76 2.0 6.0 0.00 0.51 0.50 86 1015.0
20260505170026 62 90 2.0 6.0 0.00 0.51 0.50 86 1015.0
20260505165510 62 80 2.0 6.0 0.00 0.51 0.50 86 1015.1
20260505165012 62 239 2.0 8.0 0.00 0.51 0.50 86 1015.0
20260505164506 62 124 1.0 8.0 0.00 0.51 0.50 86 1015.2
20260505164007 62 79 3.0 9.0 0.00 0.51 0.50 86 1015.3
20260505163506 62 119 2.0 9.0 0.00 0.51 0.50 86 1015.3
20260505163012 62 94 2.0 7.0 0.00 0.51 0.50 86 1015.4
20260505162506 62 82 3.0 7.0 0.00 0.51 0.50 86 1015.4
20260505162007 62 108 2.0 7.0 0.00 0.51 0.50 86 1015.4
20260505161518 62 207 3.0 10.0 0.00 0.51 0.50 87 1015.3
20260505161007 62 84 2.0 10.0 0.00 0.51 0.50 87 1015.4
20260505160509 62 124 2.0 8.0 0.00 0.51 0.50 87 1015.5
20260505153011 62 121 3.0 8.0 0.06 0.51 0.50 88 1015.6
20260505152506 62 116 2.0 12.0 0.06 0.51 0.50 89 1015.7
20260505152013 62 132 4.0 12.0 0.06 0.51 0.50 88 1015.6
20260505151517 62 133 4.0 10.0 0.06 0.51 0.50 88 1015.6
20260505151007 62 127 2.0 10.0 0.05 0.50 0.49 88 1015.7
20260505150507 62 128 4.0 10.0 0.05 0.50 0.49 88 1015.6
20260505140507 67 185 3.0 11.0 0.00 0.44 0.44 77 1015.4
20260505125007 67 171 4.0 13.0 0.00 0.44 0.44 78 1015.6
20260505124519 67 207 4.0 13.0 0.00 0.44 0.44 78 1015.7
20260505124009 66 73 5.0 13.0 0.00 0.44 0.44 78 1015.7
20260505123507 66 98 3.0 11.0 0.00 0.44 0.44 79 1015.7
20260505123023 66 25 4.0 10.0 0.00 0.44 0.44 79 1015.9
20260505122510 66 137 4.0 10.0 0.00 0.44 0.44 81 1015.9
20260505122009 65 94 4.0 12.0 0.00 0.44 0.44 81 1015.9
20260505121505 65 35 5.0 12.0 0.00 0.44 0.44 82 1016.0
20260505121003 65 136 3.0 12.0 0.00 0.44 0.44 82 1016.0
20260505120506 65 152 6.0 12.0 0.00 0.44 0.44 81 1016.0
20260505120019 65 204 4.0 11.0 0.00 0.44 0.44 81 1016.0
20260505115507 65 124 4.0 13.0 0.00 0.44 0.44 80 1016.0
20260505115012 65 131 5.0 13.0 0.00 0.44 0.44 79 1016.0
20260505114514 65 111 5.0 12.0 0.00 0.44 0.44 80 1016.2
20260505114007 65 121 3.0 12.0 0.00 0.44 0.44 80 1016.3
20260505113508 65 90 5.0 13.0 0.00 0.44 0.44 80 1016.3
20260505113022 65 145 5.0 13.0 0.00 0.44 0.44 80 1016.4
20260505112508 65 86 5.0 13.0 0.00 0.44 0.44 80 1016.3
20260505112008 65 161 2.0 11.0 0.00 0.44 0.44 81 1016.3
20260505111530 65 124 3.0 10.0 0.00 0.44 0.44 80 1016.2
20260505111009 65 23 4.0 10.0 0.00 0.44 0.44 80 1016.3
20260505110510 65 188 3.0 11.0 0.00 0.44 0.44 80 1016.3
20260505102007 65 100 4.0 16.0 0.00 0.44 0.44 79 1016.3
20260505101526 65 205 5.0 12.0 0.00 0.44 0.44 77 1016.3
20260505101014 65 105 4.0 11.0 0.00 0.44 0.44 78 1016.2
20260505100513 65 223 4.0 13.0 0.00 0.44 0.44 78 1016.3
20260505100030 65 7 5.0 13.0 0.00 0.44 0.44 77 1016.2
20260505095509 66 82 4.0 13.0 0.00 0.44 0.44 77 1016.4
20260505095009 66 84 4.0 14.0 0.00 0.44 0.44 77 1016.3
20260505094507 66 156 4.0 14.0 0.00 0.44 0.44 78 1016.3
20260505094007 66 159 4.0 15.0 0.00 0.44 0.44 78 1016.3
20260505093508 65 107 6.0 15.0 0.00 0.44 0.44 79 1016.2
20260505093016 65 152 4.0 15.0 0.00 0.44 0.44 80 1016.2
20260505092507 64 174 3.0 15.0 0.00 0.44 0.44 80 1016.2
20260505092008 64 95 4.0 13.0 0.00 0.44 0.44 80 1016.1
20260505091520 64 137 5.0 11.0 0.00 0.44 0.44 79 1016.1
20260505091010 65 130 5.0 12.0 0.00 0.44 0.44 78 1016.0
20260505090508 65 66 4.0 13.0 0.00 0.44 0.44 80 1016.1
20260505090022 64 155 5.0 13.0 0.00 0.44 0.44 81 1015.9
20260505085510 63 135 4.0 12.0 0.00 0.44 0.44 81 1016.0
20260505085009 63 68 4.0 13.0 0.00 0.44 0.44 79 1016.0
20260505084541 64 127 3.0 14.0 0.00 0.44 0.44 81 1015.9
20260505084012 64 113 3.0 14.0 0.00 0.44 0.44 81 1016.0
20260505083515 63 44 5.0 14.0 0.00 0.44 0.44 83 1015.9
20260505083018 62 99 5.0 10.0 0.00 0.44 0.44 82 1015.8
20260505082507 62 72 4.0 10.0 0.00 0.44 0.44 83 1015.9
20260505082007 61 138 4.0 9.0 0.00 0.44 0.44 84 1015.9
20260505081517 61 91 4.0 7.0 0.00 0.44 0.44 84 1016.0
20260505081012 61 60 3.0 7.0 0.00 0.44 0.44 84 1016.0
20260505080509 61 150 2.0 10.0 0.00 0.44 0.44 84 1016.0
20260505080032 61 55 2.0 10.0 0.00 0.44 0.44 84 1015.9
20260505075508 60 103 3.0 10.0 0.00 0.44 0.44 85 1015.9
20260505075011 60 220 4.0 10.0 0.00 0.44 0.44 84 1015.8
20260505074521 60 345 3.0 8.0 0.00 0.44 0.44 85 1016.0
20260505074009 60 166 3.0 11.0 0.00 0.44 0.44 85 1016.1
20260505073507 60 98 4.0 11.0 0.00 0.44 0.44 86 1016.0
20260505073036 59 88 2.0 13.0 0.00 0.44 0.44 87 1016.1
20260505072506 59 229 3.0 13.0 0.00 0.44 0.44 86 1016.1
20260505072010 59 105 2.0 10.0 0.00 0.44 0.44 87 1016.0
20260505071510 59 105 5.0 11.0 0.00 0.44 0.44 87 1016.0
20260505071007 59 94 3.0 12.0 0.00 0.44 0.44 88 1016.0
20260505070508 59 108 4.0 12.0 0.00 0.44 0.44 89 1016.0
20260505070019 59 110 3.0 10.0 0.00 0.44 0.44 89 1016.0
20260505065508 59 98 2.0 10.0 0.00 0.44 0.44 90 1016.1
20260505065007 59 165 4.0 10.0 0.00 0.44 0.44 90 1015.9
20260505064521 59 195 2.0 8.0 0.00 0.44 0.44 91 1016.0
20260505064008 59 91 2.0 8.0 0.00 0.44 0.44 92 1016.1
20260505063509 58 84 2.0 6.0 0.00 0.44 0.44 92 1016.1
20260505063032 58 46 2.0 6.0 0.00 0.44 0.44 92 1016.2
20260505062512 58 172 2.0 5.0 0.00 0.44 0.44 92 1016.0
20260505062011 58 79 1.0 7.0 0.00 0.44 0.44 93 1016.0
20260505061528 58 117 2.0 7.0 0.00 0.44 0.44 92 1016.0
20260505061008 58 121 1.0 7.0 0.00 0.44 0.44 93 1015.9
20260505060510 58 116 2.0 7.0 0.00 0.44 0.44 93 1016.0
20260505060015 58 82 1.0 7.0 0.00 0.44 0.44 93 1015.9
20260505055508 58 102 1.0 8.0 0.00 0.44 0.44 93 1015.9
20260505055011 58 87 2.0 8.0 0.00 0.44 0.44 93 1015.8
20260505054522 57 122 2.0 8.0 0.00 0.44 0.44 93 1015.8
20260505054015 57 139 2.0 8.0 0.00 0.44 0.44 93 1015.8
20260505053512 57 163 1.0 5.0 0.00 0.44 0.44 93 1015.8
20260505053024 57 117 2.0 5.0 0.01 0.44 0.44 93 1015.8
20260505052508 57 125 1.0 5.0 0.03 0.44 0.44 93 1015.7
20260505052007 57 79 1.0 6.0 0.04 0.44 0.44 93 1015.7
20260505051525 57 146 1.0 8.0 0.05 0.44 0.44 93 1015.7
20260505051007 57 158 2.0 8.0 0.05 0.44 0.44 93 1015.8
20260505050510 57 83 2.0 7.0 0.05 0.44 0.44 93 1015.8
20260505041522 57 153 1.0 4.0 0.02 0.39 0.38 93 1015.7
20260505041007 57 96 0.0 4.0 0.03 0.39 0.38 93 1015.7
20260505040512 57 126 1.0 4.0 0.03 0.39 0.38 93 1015.7
20260505040027 57 95 1.0 4.0 0.03 0.39 0.38 93 1015.5
20260505035509 57 155 1.0 6.0 0.02 0.38 0.37 93 1015.6
20260505035010 57 90 1.0 6.0 0.02 0.37 0.37 93 1015.6
20260505034526 57 116 2.0 5.0 0.02 0.37 0.37 93 1015.7
20260505034013 57 87 1.0 7.0 0.03 0.37 0.37 93 1015.7
20260505033509 57 158 2.0 7.0 0.04 0.37 0.37 93 1015.7
20260505033018 57 134 2.0 7.0 0.06 0.37 0.37 93 1015.7
20260505032510 57 118 2.0 7.0 0.06 0.37 0.36 93 1015.6
20260505032011 57 148 2.0 10.0 0.07 0.37 0.36 93 1015.8
20260505031503 57 108 4.0 10.0 0.11 0.37 0.36 92 1015.8
20260505031002 57 44 2.0 6.0 0.12 0.36 0.35 92 1015.9
20260505030502 57 149 2.0 8.0 0.15 0.36 0.35 93 1016.0
20260505030007 57 89 3.0 8.0 0.18 0.36 0.35 93 1016.0
20260505025505 57 110 2.0 6.0 0.18 0.36 0.35 93 1016.1
20260505025006 57 125 2.0 4.0 0.20 0.35 0.34 93 1016.2
20260505024508 57 124 2.0 4.0 0.21 0.35 0.34 92 1016.3
20260505024005 57 109 2.0 4.0 0.21 0.34 0.33 92 1016.3
20260505023505 57 74 0.0 7.0 0.19 0.32 0.31 92 1016.3
20260505023017 57 92 1.0 7.0 0.20 0.31 0.30 92 1016.4
20260505022505 57 72 1.0 4.0 0.21 0.30 0.29 92 1016.4
20260505022010 58 119 1.0 3.0 0.20 0.29 0.28 92 1016.5
20260505021517 58 91 1.0 3.0 0.17 0.25 0.25 92 1016.5
20260505021010 58 100 1.0 3.0 0.15 0.23 0.22 92 1016.4
20260505020509 58 108 0.0 4.0 0.12 0.20 0.19 92 1016.5
20260505020004 58 110 1.0 5.0 0.10 0.18 0.17 92 1016.6
20260505015503 58 126 1.0 6.0 0.09 0.17 0.16 92 1016.5
20260505015002 58 68 2.0 6.0 0.07 0.14 0.14 92 1016.5
20260505014511 58 103 1.0 6.0 0.06 0.14 0.13 92 1016.6
20260505014007 58 139 1.0 6.0 0.05 0.13 0.12 92 1016.6
20260505013505 58 87 1.0 5.0 0.04 0.12 0.11 92 1016.6
20260505013012 58 79 1.0 3.0 0.03 0.11 0.10 92 1016.7
20260505012505 58 101 1.0 3.0 0.01 0.09 0.08 92 1016.7
20260505012011 58 134 0.0 3.0 0.00 0.08 0.07 92 1016.8
20260505011518 58 87 2.0 3.0 0.00 0.08 0.07 92 1016.9
20260505011010 58 138 0.0 2.0 0.00 0.07 0.07 92 1017.0
20260505010506 58 105 1.0 2.0 0.00 0.07 0.07 92 1017.0
20260505010020 58 118 0.0 2.0 0.00 0.07 0.07 92 1017.0
20260505005510 58 88 0.0 2.0 0.00 0.07 0.07 92 1017.1
20260505005008 58 121 0.0 2.0 0.00 0.07 0.07 92 1017.1
20260505004507 58 111 0.0 2.0 0.00 0.07 0.07 92 1017.2
20260505004003 58 96 0.0 2.0 0.00 0.07 0.07 92 1017.3
20260505003505 58 129 0.0 2.0 0.00 0.07 0.07 92 1017.3
20260505003008 58 111 0.0 2.0 0.00 0.07 0.07 91 1017.4
20260505002506 58 94 0.0 2.0 0.01 0.07 0.07 91 1017.5
20260505002008 59 89 0.0 2.0 0.02 0.07 0.07 91 1017.5
20260505001513 58 91 0.0 2.0 0.03 0.07 0.07 91 1017.5
20260505001009 59 96 0.0 2.0 0.03 0.07 0.06 91 1017.5
20260505000506 58 121 0.0 2.0 0.05 0.07 0.06 91 1017.6
20260505000018 59 91 0.0 2.0 0.05 0.07 0.06 91 1017.6
20260504235506 59 129 0.0 2.0 0.06 0.07 0.06 91 1017.6
20260504235009 59 137 0.0 2.0 0.06 0.07 0.06 90 1017.7
20260504234522 59 100 0.0 2.0 0.06 0.07 0.06 90 1017.7
20260504234011 59 118 0.0 2.0 0.06 0.07 0.06 90 1017.8
20260504233509 59 117 0.0 2.0 0.06 0.07 0.06 90 1017.8
20260504233024 59 113 1.0 2.0 0.06 0.07 0.06 90 1017.8
20260504232505 59 108 1.0 3.0 0.05 0.06 0.05 89 1017.8
20260504232005 59 153 0.0 3.0 0.04 0.05 0.04 89 1017.8
20260504231507 59 84 1.0 3.0 0.03 0.03 0.03 89 1017.8
20260504231003 59 101 0.0 3.0 0.02 0.03 0.02 88 1018.0
20260504230509 59 149 1.0 4.0 0.00 0.01 0.00 88 1018.1
20260504230018 59 94 0.0 4.0 0.00 0.01 0.00 88 1018.0
20260504225507 59 154 1.0 5.0 0.00 0.00 0.00 88 1018.0
20260504225005 59 146 1.0 5.0 0.00 0.00 0.00 88 1018.0
20260504224519 59 89 1.0 5.0 0.00 0.00 0.00 88 1018.1
20260504224008 59 86 1.0 3.0 0.00 0.00 0.00 88 1018.2
20260504223508 59 105 1.0 2.0 0.00 0.00 0.00 88 1018.3
20260504223024 59 108 0.0 3.0 0.00 0.00 0.00 88 1018.4
20260504222515 59 104 1.0 3.0 0.00 0.00 0.00 88 1018.5
20260504222010 59 71 1.0 2.0 0.00 0.00 0.00 88 1018.6
20260504221526 59 102 0.0 3.0 0.00 0.00 0.00 88 1018.7
20260504221005 59 113 1.0 3.0 0.00 0.00 0.00 88 1018.6
20260504220503 59 98 1.0 2.0 0.00 0.00 0.00 89 1018.6
20260504220010 59 122 0.0 3.0 0.00 0.00 0.00 89 1018.7
20260504215507 59 129 0.0 3.0 0.00 0.00 0.00 89 1018.6
20260504215007 60 113 1.0 3.0 0.00 0.00 0.00 89 1018.7
20260504214517 60 112 0.0 3.0 0.00 0.00 0.00 89 1018.8
20260504214006 60 124 0.0 3.0 0.00 0.00 0.00 89 1018.8
20260504213507 60 103 1.0 3.0 0.00 0.00 0.00 89 1018.8
20260504213026 60 113 1.0 4.0 0.00 0.00 0.00 90 1018.8
20260504212507 60 98 1.0 4.0 0.00 0.00 0.00 90 1018.9
20260504212011 60 110 0.0 2.0 0.00 0.00 0.00 90 1019.0
20260504211534 60 134 0.0 2.0 0.00 0.00 0.00 90 1019.1
20260504211010 60 115 0.0 2.0 0.00 0.00 0.00 90 1019.1
20260504210511 60 115 1.0 2.0 0.00 0.00 0.00 90 1019.1
20260504210028 60 122 0.0 2.0 0.00 0.00 0.00 90 1019.1
20260504205504 60 143 0.0 2.0 0.00 0.00 0.00 90 1019.2
20260504205007 60 115 0.0 1.0 0.00 0.00 0.00 90 1019.1
20260504204515 60 117 0.0 1.0 0.00 0.00 0.00 90 1019.1
20260504204007 60 117 0.0 2.0 0.00 0.00 0.00 90 1019.2
20260504203507 60 139 0.0 2.0 0.00 0.00 0.00 90 1019.2
20260504203021 60 116 0.0 2.0 0.00 0.00 0.00 90 1019.2
20260504202508 60 123 0.0 1.0 0.00 0.00 0.00 90 1019.1
20260504202008 60 122 0.0 1.0 0.00 0.00 0.00 90 1019.2
20260504201520 60 141 0.0 1.0 0.00 0.00 0.00 90 1019.2
20260504201010 60 141 0.0 1.0 0.00 0.00 0.00 90 1019.1
20260504200509 60 141 0.0 1.0 0.00 0.00 0.00 90 1019.1
20260504200026 60 91 0.0 1.0 0.00 0.00 0.00 89 1019.1
20260504195509 60 131 0.0 2.0 0.00 0.00 0.00 89 1019.0
20260504195013 61 157 0.0 2.0 0.00 0.00 0.00 89 1018.9
20260504194528 61 119 0.0 2.0 0.00 0.00 0.00 89 1018.9
20260504194005 61 105 0.0 2.0 0.00 0.00 0.00 89 1018.9
20260504193505 61 102 0.0 2.0 0.00 0.00 0.00 89 1018.9
20260504193015 61 119 0.0 2.0 0.00 0.00 0.00 89 1018.8
20260504192507 61 100 0.0 2.0 0.00 0.00 0.00 88 1018.8
20260504192008 61 125 1.0 2.0 0.00 0.00 0.00 88 1018.8
20260504191522 61 150 0.0 2.0 0.00 0.00 0.00 87 1018.8
20260504191007 62 120 0.0 2.0 0.00 0.00 0.00 87 1018.9
20260504190509 62 93 0.0 1.0 0.00 0.00 0.00 86 1018.9
20260504190024 61 121 0.0 1.0 0.00 0.00 0.00 85 1018.8
20260504185507 61 135 0.0 1.0 0.00 0.00 0.00 84 1018.9
20260504185009 62 155 0.0 3.0 0.00 0.00 0.00 85 1018.8
20260504184536 62 97 0.0 3.0 0.00 0.00 0.00 85 1018.8
20260504184012 62 74 0.0 5.0 0.00 0.00 0.00 84 1018.8
20260504183514 62 137 0.0 5.0 0.00 0.00 0.00 84 1018.9